Wind_Speed
14 16 18 20 22 23 24 26 27 28 28 28 28 27 26 25 24 22 21 20 19 19 19 18 18 18 18 19 19 19 18 17 18 18 18 18 17 18 19 20 20 20 19 19 18 18 17 17 18 19 19 20 20 21 22 22 23 23 23 23 22 21 20 19 19 18 17 16 14
15 17 19 22 23 24 25 25 26 25 25 26 27 28 27 26 24 22 21 19 19 18 18 18 18 18 18 17 17 17 17 16 16 17 18 19 20 21 21 21 20 20 19 19 18 18 19 19 20 21 23 24 24 25 25 25 25 25 24 23 22 20 18 17 16 16 16 16 15
18 19 21 21 21 21 22 22 22 20 19 20 24 26 27 26 25 23 21 20 18 18 18 17 17 16 17 16 17 17 17 17 17 18 19 20 22 22 21 20 20 20 20 20 20 20 21 22 23 24 25 26 25 25 24 23 22 20 19 18 17 15 14 13 13 13 13 14 14
20 21 22 22 22 21 22 23 24 24 23 23 24 25 26 25 24 23 22 20 18 17 16 15 15 16 17 17 18 18 19 20 21 21 21 20 21 21 21 20 20 20 21 22 22 23 24 25 25 25 25 24 23 21 18 16 15 13 12 12 11 11 10 10 10 10 10 11 12
20 21 22 23 25 26 27 27 28 28 28 27 26 25 24 24 23 22 21 18 17 15 15 15 16 17 19 20 21 22 23 23 23 22 21 21 20 21 21 21 21 22 22 23 24 25 25 25 24 23 22 20 18 15 13 12 10 10 10 10 10 9 9 9 9 9 9 9 10
19 19 20 22 25 28 29 30 30 29 28 28 26 25 23 21 20 19 18 16 16 16 16 18 19 20 21 22 23 22 22 23 23 23 21 20 20 20 21 21 22 23 24 24 25 25 24 23 21 19 17 15 13 11 10 9 9 9 9 9 9 9 9 8 8 8 8 7 7
18 18 18 20 23 26 29 30 30 29 28 26 25 23 21 19 17 17 17 17 17 17 18 20 21 21 21 21 21 21 21 22 23 22 21 20 19 20 21 22 23 23 24 24 24 23 21 18 15 13 12 11 9 8 9 8 8 8 8 7 7 7 7 6 7 7 6 6 6
18 18 19 20 21 25 28 30 29 28 26 24 22 21 20 19 18 18 18 18 18 18 20 21 22 22 21 19 19 20 21 21 21 21 20 20 21 22 23 23 23 22 22 21 20 17 14 12 10 9 8 7 7 7 7 8 8 7 7 7 7 7 7 6 7 7 7 7 7
20 20 20 22 22 25 27 29 29 28 26 23 20 19 19 20 20 20 20 19 19 19 20 21 21 21 20 21 21 21 21 22 22 22 22 23 23 23 23 22 20 19 18 16 14 12 10 9 9 8 8 8 7 7 7 8 8 8 8 8 8 8 8 8 8 8 9 9 9
22 22 24 25 25 26 26 28 28 27 26 23 21 20 20 21 22 22 21 20 20 20 20 20 19 20 21 22 23 23 23 23 23 23 23 23 23 22 20 18 16 14 13 13 12 12 11 11 11 10 10 9 9 9 9 10 10 10 9 9 9 9 9 9 9 10 10 10 11
24 26 27 27 28 27 27 27 26 25 23 22 21 20 20 20 21 21 21 20 19 19 19 19 20 21 22 22 23 23 23 23 22 22 21 20 19 18 16 15 14 14 14 14 14 13 13 13 12 12 12 11 11 11 11 11 10 10 10 10 9 9 10 10 10 10 11 11 12
27 28 28 28 27 27 27 26 25 23 21 20 19 19 18 18 18 18 19 18 18 18 18 18 19 21 22 21 21 20 19 19 20 20 18 17 17 16 15 15 15 15 15 15 15 14 14 14 13 13 13 12 12 12 12 11 11 11 11 11 11 11 10 10 10 10 10 11 12
28 28 27 26 26 26 26 24 23 22 20 19 18 18 17 17 16 16 16 16 16 17 17 17 18 19 20 19 18 17 17 17 18 18 17 17 18 18 18 18 17 17 16 16 16 15 15 15 14 14 14 13 13 12 12 11 11 12 12 12 12 11 11 11 11 11 11 12 13
27 26 25 24 25 25 24 23 22 20 19 18 17 17 17 16 16 15 15 15 16 17 17 17 17 16 15 16 17 17 17 17 17 18 19 20 21 21 21 20 19 18 17 17 16 16 16 15 15 14 14 13 13 13 13 13 13 13 13 12 12 12 12 12 13 13 13 14 15
27 25 24 23 23 23 23 22 20 18 17 16 16 16 16 15 15 15 14 15 17 18 17 17 15 15 15 16 16 17 19 19 20 22 23 24 25 24 23 21 19 18 17 17 16 16 17 17 17 16 15 15 15 14 13 13 13 13 13 13 13 13 13 14 14 14 14 15 16
27 26 25 24 23 22 22 20 19 17 16 16 16 16 16 15 14 14 14 17 17 17 16 15 14 15 16 16 18 19 21 23 25 27 28 29 29 27 25 22 19 17 15 14 14 15 16 19 20 20 19 19 19 17 15 15 15 15 16 16 16 16 16 16 15 15 16 16 17
27 26 26 25 24 23 21 20 19 19 18 19 19 19 18 18 17 16 17 18 17 16 15 15 16 18 20 21 22 24 25 27 28 28 28 28 29 28 27 24 20 17 15 14 14 13 14 15 16 18 19 20 20 20 18 18 17 17 18 18 18 18 17 17 16 16 17 17 18
26 26 25 25 24 23 22 21 20 20 20 21 21 21 21 21 21 21 21 21 21 20 19 19 21 23 24 25 26 26 27 28 27 26 24 24 24 25 25 24 22 20 19 18 17 16 13 12 12 14 16 17 18 18 17 17 17 17 18 18 18 18 18 18 18 18 18 18 18
25 25 25 24 24 23 22 21 21 21 21 21 21 21 22 22 22 22 22 22 22 22 22 23 24 25 26 27 28 28 28 27 24 22 20 19 19 19 20 20 20 19 19 18 17 16 15 14 14 14 15 15 16 16 16 17 18 18 18 18 18 18 18 18 19 18 18 18 19
25 25 25 24 24 23 22 22 21 21 20 20 20 21 22 22 21 21 21 22 23 24 24 25 26 27 27 28 27 26 25 22 19 16 15 14 13 13 13 13 13 13 13 13 13 14 14 15 16 17 17 18 18 19 19 19 19 19 19 19 19 18 18 18 18 18 18 19 19
25 25 24 24 23 23 22 21 19 19 19 20 21 21 22 22 21 21 21 22 23 24 25 25 26 25 24 23 21 19 17 16 14 14 13 13 13 13 13 14 14 15 15 16 16 17 17 18 19 19 20 21 22 22 22 22 21 21 20 19 18 18 18 18 18 18 19 19 20
25 24 23 22 21 21 21 20 19 19 20 21 21 21 21 21 21 21 22 23 24 24 24 23 22 21 19 18 17 17 17 17 17 17 18 18 19 19 20 20 21 21 22 22 22 22 22 22 22 22 23 23 23 23 22 21 21 20 19 18 18 18 18 18 18 19 19 19 20
25 23 21 19 20 21 21 20 20 20 21 20 20 20 20 21 21 22 22 22 22 22 21 20 20 19 20 20 20 21 21 22 22 23 23 24 24 24 25 25 25 25 24 24 24 24 24 24 24 23 23 23 23 21 20 19 18 18 18 19 19 19 18 18 19 19 19 19 20
24 23 21 20 21 21 21 21 20 20 20 19 19 19 20 20 20 20 20 20 20 20 20 20 21 21 22 22 23 23 23 24 24 24 24 24 24 24 24 24 24 24 24 23 23 23 23 23 23 23 23 22 20 18 17 17 17 17 18 19 19 19 19 19 19 20 20 20 20
24 23 22 21 21 20 20 20 19 19 18 18 19 19 19 19 18 18 18 17 18 18 18 19 20 20 21 21 22 22 22 23 23 23 22 22 22 22 22 22 22 22 22 22 21 21 21 22 22 22 22 21 19 18 17 17 17 17 18 19 20 20 21 21 22 22 21 21 20
22 21 21 20 20 19 18 18 17 17 17 16 16 16 16 16 16 16 16 16 17 17 17 18 18 19 19 19 20 20 21 21 22 22 22 21 21 21 21 21 21 21 21 21 20 20 20 20 21 21 21 21 20 19 19 19 18 19 19 20 20 21 22 22 22 21 21 21 21
20 19 19 19 18 17 16 15 15 15 14 13 13 13 14 15 16 16 17 18 18 19 20 20 20 20 20 20 20 20 21 21 22 22 22 22 22 21 21 21 20 20 21 21 20 20 20 20 20 20 21 21 21 21 21 20 19 19 19 20 20 20 20 20 20 20 20 20 20
19 19 18 18 16 15 13 12 12 11 11 11 12 13 14 16 17 18 19 19 20 21 22 23 23 23 23 23 22 22 21 21 21 21 22 22 22 22 21 20 18 18 20 21 21 20 20 20 20 20 20 21 21 21 21 20 19 19 19 19 19 19 19 19 19 19 18 19 19
19 19 18 16 15 13 11 10 9 9 10 11 13 15 16 17 17 16 16 16 16 17 18 19 21 22 22 21 21 20 20 19 19 18 19 20 20 20 20 18 17 17 19 21 21 20 20 20 20 20 21 21 21 21 21 20 20 19 19 18 18 18 18 18 18 18 19 19 19
19 18 16 14 13 11 9 8 8 9 11 12 14 15 14 14 14 13 13 13 14 14 15 15 16 17 18 18 17 17 16 16 16 16 16 17 18 18 18 18 16 16 18 21 21 20 20 20 20 21 21 21 22 22 22 22 21 21 20 20 19 19 19 19 19 19 19 20 20
18 16 14 12 10 9 8 8 9 10 12 13 14 13 11 12 12 12 13 13 13 14 15 15 16 16 17 16 16 16 16 16 16 16 17 17 18 18 18 18 16 16 18 21 22 21 21 21 21 21 22 22 22 23 23 23 23 22 22 21 21 20 20 20 20 20 20 20 20
16 14 11 10 9 8 8 9 10 11 12 13 14 13 12 12 12 12 12 12 13 14 15 15 16 16 16 16 16 16 17 18 19 19 19 19 19 19 19 19 16 16 19 22 22 22 22 22 22 22 22 23 23 23 24 24 24 23 22 22 21 21 21 20 20 20 20 20 20
15 12 10 9 8 8 8 9 10 12 13 13 13 13 13 12 12 12 12 12 14 15 16 16 16 16 16 16 16 17 18 20 21 21 21 20 20 20 20 19 16 17 21 23 23 23 23 23 23 23 23 23 24 24 24 24 23 22 21 21 20 20 20 20 20 20 20 20 20
14 12 10 8 8 8 8 9 10 12 13 13 14 14 14 13 13 13 13 13 15 16 16 16 16 15 15 16 16 18 20 22 22 22 22 22 21 21 21 19 17 18 22 24 24 24 23 23 23 23 23 24 24 24 25 24 21 20 20 20 20 20 20 20 20 20 20 20 20
13 11 10 8 8 8 9 9 11 12 13 14 15 15 14 13 14 14 14 14 15 16 16 16 16 16 15 15 17 19 21 22 23 23 23 23 23 22 22 20 18 19 22 24 24 24 23 23 23 23 24 24 25 25 24 22 20 19 19 19 19 19 19 19 20 21 21 21 21
12 11 10 9 8 8 9 10 11 12 13 15 17 16 14 14 14 15 15 15 16 16 17 17 17 16 15 16 18 21 22 23 23 24 24 24 24 23 22 21 19 19 22 24 24 24 23 23 24 24 24 25 25 24 22 20 19 18 18 18 18 19 19 19 20 20 21 21 20
12 11 10 9 9 9 10 11 12 13 14 14 15 14 14 14 15 15 15 16 17 17 17 17 17 16 16 17 20 22 24 24 24 25 25 25 24 24 23 22 21 20 21 23 24 24 24 24 24 25 25 25 25 23 21 18 18 18 18 18 18 18 19 19 20 20 20 20 19
11 10 9 9 9 9 10 12 13 14 14 13 13 13 14 15 15 16 16 16 17 18 18 18 17 17 17 19 22 24 25 25 25 25 25 25 25 24 23 23 22 22 22 23 24 25 25 25 25 25 25 25 24 22 20 18 18 18 18 18 19 19 19 19 19 19 19 19 19
10 9 9 8 9 10 11 12 13 13 13 13 13 14 15 15 16 16 17 18 18 18 18 18 17 17 18 22 24 26 26 26 25 25 25 25 25 24 24 23 23 23 23 23 24 25 25 25 25 25 25 24 23 21 19 18 18 17 17 18 18 18 18 18 18 18 18 19 20
10 9 8 8 9 11 12 12 12 12 13 13 14 14 15 16 17 18 19 19 17 17 17 17 17 18 20 23 25 25 26 26 25 24 24 24 25 25 24 24 23 23 23 23 24 25 25 25 25 24 24 23 21 19 18 17 17 17 17 17 17 17 18 18 18 18 18 19 20
10 9 9 9 10 11 12 12 12 13 13 13 14 15 17 18 19 19 18 17 17 17 17 17 18 19 21 23 23 23 24 26 26 24 23 24 24 24 24 24 24 23 23 23 23 24 25 25 24 23 22 21 19 17 15 15 15 16 16 17 17 18 18 19 19 19 19 19 18
Wind_Direction
319 322 323 324 323 324 325 326 327 328 329 330 331 331 330 330 329 326 322 318 315 312 309 308 308 308 309 310 312 314 315 313 312 312 313 312 310 308 307 307 306 305 304 302 301 300 299 298 296 295 293 292 291 290 289 289 289 289 290 291 293 293 293 292 293 296 302 309 316
323 324 325 325 326 327 328 329 330 330 330 329 329 329 329 328 328 326 322 317 312 310 308 307 306 307 307 307 308 310 310 307 306 307 308 308 307 307 306 304 303 301 300 298 296 295 294 293 293 293 292 292 292 292 292 292 291 292 293 294 296 297 298 299 300 304 308 314 320
322 324 326 328 329 330 330 329 328 327 324 322 324 326 327 326 326 325 322 318 313 309 306 304 302 302 302 302 303 303 303 303 302 302 303 303 304 304 302 299 298 296 295 293 292 292 291 292 292 292 292 292 292 292 292 293 294 296 299 302 305 308 310 313 315 317 320 323 327
323 324 325 326 327 328 327 327 327 326 324 323 323 323 324 324 324 324 322 319 313 307 302 299 296 295 297 299 300 299 300 300 300 300 299 299 298 298 296 294 293 292 291 291 291 291 292 293 293 293 292 292 291 291 293 296 300 305 311 316 321 325 329 331 333 335 335 335 336
324 324 324 325 326 327 327 327 327 327 326 325 324 324 323 322 322 321 319 314 309 301 295 294 294 294 297 299 299 299 298 299 299 298 297 294 293 292 291 290 289 289 290 291 292 293 293 294 294 293 292 292 292 293 297 302 311 318 323 327 332 336 339 340 342 342 342 340 339
323 323 323 324 325 326 327 327 327 326 325 324 324 323 321 318 316 313 310 304 300 296 293 294 297 298 299 299 298 297 296 296 296 295 293 291 289 288 288 288 288 289 290 292 293 294 294 294 294 293 292 293 294 297 303 309 316 322 326 329 331 334 336 336 338 339 338 335 333
321 322 322 323 323 324 325 325 325 324 323 321 320 319 317 312 306 302 301 299 296 294 294 297 299 300 299 296 294 292 292 292 292 291 289 288 287 287 288 289 290 291 292 294 295 295 294 294 291 290 291 293 292 295 302 308 311 315 317 317 316 321 324 322 324 326 328 326 320
321 322 322 321 320 321 322 323 322 321 319 316 313 311 310 307 303 301 300 299 297 295 296 298 298 298 295 291 288 288 288 287 287 286 284 284 285 287 290 292 293 294 294 294 293 291 288 286 281 278 279 284 283 284 288 294 296 296 296 296 300 305 306 301 305 309 310 309 305
321 321 321 320 319 319 320 320 320 319 317 312 308 305 305 305 306 307 306 303 300 298 297 296 296 294 291 289 287 285 284 282 281 281 281 282 285 288 291 293 292 291 290 287 284 279 274 270 269 266 266 269 270 269 271 276 281 282 283 284 288 291 294 295 296 296 295 294 293
320 320 320 320 319 319 319 319 318 317 315 313 309 307 306 307 311 312 310 306 303 300 297 292 290 289 288 287 286 285 283 281 280 281 283 285 286 287 287 286 282 278 274 272 271 270 268 266 266 265 265 267 266 266 268 272 276 278 280 280 283 285 287 291 290 290 288 285 286
319 320 320 321 321 321 320 319 317 315 313 311 309 308 307 307 309 310 310 306 303 299 294 290 289 287 286 285 285 284 283 282 282 284 285 286 285 282 278 273 268 264 263 265 267 267 266 266 266 266 267 268 269 270 271 273 273 274 276 277 278 280 280 281 280 281 281 279 280
320 321 322 323 323 323 322 320 317 314 310 307 307 307 306 303 302 303 303 301 297 294 292 289 288 286 285 284 284 284 284 284 284 284 283 281 279 276 270 266 264 264 264 264 264 264 265 265 266 267 268 270 271 273 273 271 271 274 276 278 280 279 276 274 274 272 272 274 276
322 324 324 324 325 325 324 321 318 314 310 308 307 307 306 303 300 297 295 292 290 291 291 287 284 284 284 284 284 284 284 283 283 283 281 279 277 273 269 264 263 264 265 265 264 264 264 266 266 268 270 271 271 271 270 269 270 272 273 274 274 274 273 273 273 271 270 270 273
326 327 327 326 326 325 324 322 318 314 311 309 309 309 307 305 302 298 293 289 290 291 290 286 284 283 284 285 284 283 282 282 281 281 279 278 276 273 269 266 266 267 268 268 266 265 265 266 267 268 268 268 268 269 270 271 271 272 272 271 271 271 271 272 274 274 273 272 273
329 329 327 326 325 324 323 321 318 314 311 310 310 310 309 308 306 301 295 291 291 291 288 285 284 285 286 286 285 282 280 279 279 279 279 279 277 274 271 269 268 269 271 272 270 268 266 266 266 265 265 266 268 270 271 272 272 272 271 271 271 272 274 276 277 277 277 277 278
328 328 327 326 324 323 321 319 316 313 311 310 309 309 308 307 307 302 294 289 289 287 284 281 280 279 280 282 281 280 280 281 282 284 284 284 282 278 273 267 265 266 269 270 269 267 267 268 267 267 267 268 270 271 271 269 269 271 274 277 279 281 281 281 280 279 279 279 280
326 325 325 324 322 321 318 316 313 311 309 307 306 305 304 303 302 297 290 284 282 277 273 271 268 269 271 275 276 279 281 284 286 288 288 287 284 280 275 268 262 258 257 257 258 260 265 269 270 270 269 270 271 272 272 272 275 279 284 288 290 289 288 284 280 278 278 278 278
324 324 323 322 321 319 316 314 311 309 307 305 304 303 302 301 299 295 290 285 280 274 268 266 265 267 270 273 277 280 282 284 286 288 288 287 285 281 276 270 261 255 251 250 251 254 257 262 267 270 272 273 275 277 280 283 288 292 295 296 295 292 288 285 281 279 277 277 278
324 324 323 322 321 319 316 314 311 309 307 306 305 304 303 301 299 295 291 289 286 281 275 270 270 271 272 274 276 278 279 280 282 285 287 289 287 283 277 270 263 257 255 255 258 260 264 269 275 281 286 290 293 296 298 300 301 301 300 297 294 291 287 284 282 280 278 278 278
325 324 324 323 321 319 317 315 312 310 308 308 307 306 304 302 300 298 296 295 293 289 283 277 274 273 274 275 276 276 278 279 283 288 294 297 297 294 288 283 279 278 279 282 285 288 290 294 298 302 305 308 310 310 309 307 305 302 299 296 292 289 287 284 282 281 280 279 279
325 325 325 324 323 321 318 316 314 312 310 309 309 309 308 307 306 304 303 301 298 293 287 281 277 276 277 279 281 284 289 294 301 307 312 314 314 313 312 312 312 313 313 314 313 312 312 311 311 312 312 312 312 311 310 308 305 302 298 293 289 287 285 283 281 281 280 280 279
325 326 326 325 323 322 320 317 315 312 311 312 313 313 312 312 310 308 305 303 298 292 286 283 283 285 290 296 301 306 310 314 316 317 317 317 316 316 316 317 318 319 319 318 318 316 315 314 313 312 311 311 311 311 310 307 304 300 296 291 288 286 283 281 280 280 279 279 279
325 326 326 324 323 321 319 317 315 314 314 315 316 316 314 312 309 307 305 302 299 295 294 295 298 303 308 311 314 314 314 314 314 314 314 315 315 316 316 317 318 319 319 318 318 317 316 315 314 312 312 311 311 310 307 301 298 294 291 290 287 285 283 281 280 280 280 279 279
324 325 324 323 322 320 319 318 317 317 318 317 316 315 312 310 308 306 306 305 305 306 308 311 313 315 316 316 316 316 315 315 316 317 317 318 319 320 321 321 321 321 320 319 318 317 316 315 314 313 312 312 310 306 300 295 291 289 288 288 286 285 284 282 281 281 280 279 279
322 322 322 322 321 321 320 320 320 320 319 317 315 312 311 310 310 311 312 315 317 319 322 323 323 323 322 322 322 322 322 323 324 325 326 327 328 328 327 327 325 324 322 320 319 317 316 315 313 313 312 311 308 303 297 294 291 288 287 287 286 286 286 286 286 285 283 281 279
321 321 321 321 321 321 321 321 321 319 317 315 314 313 313 315 318 322 326 329 333 335 336 336 335 334 332 331 330 330 330 330 330 331 331 332 332 331 330 329 327 325 322 320 318 317 315 314 312 311 310 309 306 303 300 296 293 290 288 287 287 288 289 289 289 288 286 284 282
318 318 318 318 319 319 320 319 318 317 316 315 317 320 324 328 332 336 339 342 344 345 346 346 344 342 340 339 337 336 335 334 332 332 331 331 331 330 330 329 327 323 320 318 317 315 314 312 311 309 308 307 306 304 302 300 296 293 291 289 289 288 288 288 287 287 286 284 283
315 314 314 315 316 316 316 315 314 315 317 320 325 331 336 340 343 345 346 346 347 347 347 347 346 345 344 344 342 340 338 336 334 332 331 330 329 329 329 328 325 319 316 315 315 315 313 311 310 308 307 306 305 304 303 301 298 295 293 290 288 286 285 284 284 284 283 283 282
312 312 312 313 313 312 312 311 312 317 323 329 335 340 344 346 347 347 345 344 343 343 342 342 343 343 343 342 340 338 337 335 332 330 327 327 326 326 326 324 321 315 312 313 314 314 313 311 310 309 307 306 305 304 303 301 298 295 292 289 286 284 283 283 282 283 283 283 283
310 310 311 310 309 309 309 310 314 323 332 339 345 347 347 345 344 341 337 336 336 335 335 336 335 335 334 333 332 330 329 327 326 324 322 321 322 322 322 321 318 312 309 311 313 313 313 312 310 309 308 307 306 304 303 301 298 295 291 288 285 283 283 283 282 282 283 283 283
308 309 308 307 305 304 307 313 322 332 339 345 348 346 342 338 336 334 333 334 334 335 334 333 331 329 328 327 326 324 323 323 322 322 321 320 320 321 320 320 317 311 307 310 313 314 313 312 310 309 308 307 306 305 304 303 301 297 293 289 286 283 282 282 282 282 283 283 284
307 306 303 300 299 301 308 318 329 338 342 345 344 342 337 334 331 329 330 332 333 334 333 331 329 327 326 325 325 324 323 324 324 325 324 323 322 321 321 321 317 309 306 310 313 314 313 312 311 310 309 308 307 306 305 305 303 300 295 290 286 283 282 282 282 283 283 284 284
304 301 295 291 293 300 311 323 333 339 341 341 339 337 333 328 326 325 326 329 332 333 332 330 329 327 325 324 324 323 324 325 326 326 325 324 323 321 321 321 315 308 307 311 313 314 313 312 311 310 310 309 308 308 307 307 303 298 294 288 284 283 282 282 282 282 283 282 282
300 297 291 287 292 302 314 325 332 337 338 337 334 331 328 322 322 322 322 325 329 331 331 330 328 325 323 322 322 322 324 325 326 326 325 324 322 320 320 321 313 307 307 311 313 314 313 313 312 311 311 310 310 310 310 309 301 295 290 284 282 282 282 281 281 280 280 280 280
298 295 290 289 297 308 318 324 330 333 333 330 329 327 322 319 319 320 320 321 326 329 329 328 326 324 321 320 321 323 325 326 326 325 324 323 322 320 320 319 313 307 307 310 312 313 314 313 313 312 312 312 312 312 312 309 301 293 288 284 283 283 282 281 280 279 279 280 281
294 292 291 295 305 315 321 324 329 329 328 326 325 321 317 316 317 318 318 318 322 325 326 325 325 323 321 320 321 324 325 325 325 324 323 322 322 320 319 318 313 308 307 310 312 314 314 314 314 314 314 314 314 314 312 306 299 292 288 286 284 282 281 280 280 280 281 282 283
290 290 293 301 311 317 319 323 327 327 324 321 318 314 310 313 315 317 317 316 319 321 322 323 323 322 320 320 321 323 325 325 324 323 322 322 321 319 318 317 314 311 309 311 313 315 316 316 316 316 316 316 316 314 309 302 295 290 287 285 283 282 282 282 283 284 284 284 283
285 287 293 302 309 314 317 322 324 323 319 314 310 309 310 311 313 314 314 313 316 317 319 320 321 320 319 320 322 323 324 324 324 322 321 320 320 319 317 316 315 314 313 313 315 316 317 317 317 317 317 316 316 313 307 300 294 291 289 287 286 285 285 286 287 286 285 284 284
278 282 286 293 302 311 317 320 319 316 313 308 307 309 311 311 311 311 311 312 314 315 316 317 318 318 319 321 322 323 324 324 323 321 320 319 318 318 317 317 317 316 316 316 317 318 318 318 318 318 317 317 315 312 307 302 297 294 292 290 289 288 288 288 288 287 286 285 286
277 280 285 290 300 309 315 315 312 309 307 306 306 308 310 310 309 310 311 312 313 313 314 314 315 317 319 321 322 322 322 322 322 320 317 317 317 317 318 318 319 319 319 318 318 319 319 319 319 318 318 317 315 311 307 303 300 296 292 289 289 289 289 289 288 288 287 288 290
277 281 286 292 300 307 311 312 309 307 306 306 306 307 309 311 311 311 311 311 312 312 312 313 314 316 319 321 320 318 318 319 319 318 316 316 316 317 318 319 320 320 320 319 319 319 319 320 320 320 320 319 316 312 307 301 297 292 289 288 288 289 290 290 291 291 291 292 292
Height
1530 1529 1527 1527 1526 1525 1524 1523 1522 1520 1519 1518 1517 1516 1515 1514 1513 1512 1511 1510 1508 1507 1506 1505 1504 1503 1502 1501 1500 1500 1499 1498 1497 1496 1495 1494 1494 1493 1492 1491 1490 1489 1489 1488 1487 1487 1487 1486 1486 1485 1484 1484 1483 1483 1482 1482 1481 1479 1478 1477 1477 1476 1475 1474 1474 1473 1473 1472 1472
1528 1527 1526 1525 1524 1523 1522 1521 1520 1519 1517 1517 1515 1514 1513 1512 1511 1510 1509 1508 1507 1506 1505 1504 1503 1502 1501 1500 1499 1498 1498 1497 1496 1495 1494 1493 1492 1491 1490 1490 1489 1488 1487 1487 1487 1486 1485 1485 1484 1483 1483 1482 1482 1481 1480 1479 1478 1477 1476 1475 1475 1474 1473 1472 1472 1472 1471 1471 1471
1527 1526 1525 1524 1523 1522 1521 1520 1519 1518 1517 1516 1514 1513 1512 1510 1509 1508 1507 1506 1505 1504 1503 1502 1502 1501 1500 1499 1498 1497 1497 1496 1495 1494 1493 1492 1491 1490 1489 1488 1487 1487 1486 1486 1485 1484 1484 1483 1482 1482 1481 1480 1480 1479 1478 1477 1476 1475 1474 1473 1472 1472 1471 1471 1470 1470 1470 1469 1469
1525 1524 1523 1523 1522 1521 1520 1519 1518 1517 1516 1514 1513 1512 1510 1508 1507 1506 1505 1504 1504 1503 1502 1501 1501 1499 1498 1498 1497 1496 1495 1494 1493 1492 1492 1491 1489 1488 1488 1487 1486 1485 1484 1484 1483 1483 1482 1482 1481 1480 1479 1478 1477 1477 1476 1475 1474 1473 1473 1472 1471 1470 1470 1469 1469 1468 1468 1467 1467
1524 1523 1522 1521 1520 1519 1518 1517 1516 1514 1513 1512 1511 1510 1508 1507 1506 1505 1504 1503 1502 1502 1501 1500 1499 1498 1497 1496 1495 1494 1493 1492 1491 1491 1490 1489 1488 1487 1486 1485 1485 1484 1483 1482 1482 1481 1480 1480 1479 1478 1477 1477 1476 1475 1474 1474 1473 1472 1472 1471 1470 1469 1468 1468 1467 1467 1467 1466 1466
1523 1522 1521 1520 1518 1517 1516 1515 1514 1512 1511 1510 1509 1508 1507 1506 1505 1504 1503 1502 1501 1500 1499 1498 1497 1496 1495 1494 1493 1492 1492 1490 1489 1489 1488 1487 1487 1486 1485 1484 1483 1482 1481 1480 1480 1479 1478 1478 1477 1477 1476 1475 1474 1473 1473 1472 1472 1471 1470 1469 1469 1468 1467 1467 1466 1466 1465 1465 1465
1522 1521 1520 1519 1517 1516 1514 1513 1512 1511 1510 1508 1507 1506 1505 1504 1503 1503 1502 1501 1500 1499 1497 1496 1495 1494 1493 1492 1492 1491 1490 1489 1488 1487 1487 1486 1485 1484 1483 1483 1482 1481 1480 1479 1478 1477 1477 1476 1476 1475 1474 1473 1473 1472 1472 1471 1470 1470 1469 1468 1468 1467 1467 1466 1466 1465 1465 1464 1464
1521 1520 1519 1517 1516 1515 1513 1512 1511 1509 1508 1507 1506 1504 1503 1502 1502 1501 1500 1499 1498 1497 1496 1494 1493 1492 1492 1491 1490 1489 1488 1487 1487 1486 1485 1484 1484 1483 1482 1481 1480 1479 1478 1477 1477 1476 1475 1475 1475 1474 1473 1473 1472 1472 1471 1470 1470 1469 1469 1468 1468 1467 1467 1467 1466 1465 1464 1464 1464
1519 1518 1517 1516 1515 1513 1512 1510 1509 1507 1506 1505 1504 1503 1502 1501 1500 1499 1498 1497 1496 1495 1494 1493 1492 1491 1490 1489 1488 1488 1487 1486 1485 1484 1483 1482 1482 1481 1480 1480 1479 1478 1477 1476 1476 1475 1475 1474 1474 1474 1473 1472 1472 1471 1471 1470 1469 1469 1468 1468 1467 1467 1466 1465 1465 1464 1464 1464 1463
1517 1516 1515 1514 1513 1512 1510 1509 1507 1506 1504 1503 1502 1501 1500 1498 1497 1496 1496 1495 1494 1493 1492 1492 1490 1489 1488 1487 1487 1486 1485 1484 1483 1482 1482 1481 1480 1479 1479 1478 1478 1477 1477 1476 1475 1474 1474 1473 1473 1472 1472 1472 1471 1470 1470 1469 1468 1467 1467 1467 1466 1465 1465 1464 1464 1463 1463 1463 1462
1516 1514 1513 1512 1511 1510 1508 1507 1505 1504 1502 1501 1500 1499 1498 1497 1495 1494 1494 1493 1492 1492 1491 1490 1489 1488 1487 1486 1485 1484 1484 1483 1482 1482 1481 1480 1479 1479 1478 1477 1477 1476 1476 1475 1474 1473 1473 1472 1472 1471 1471 1470 1470 1469 1468 1467 1467 1466 1465 1465 1464 1464 1463 1463 1463 1462 1462 1462 1461
1513 1512 1511 1510 1509 1507 1506 1505 1503 1502 1501 1500 1499 1498 1497 1495 1494 1493 1492 1492 1491 1491 1490 1489 1488 1487 1486 1485 1484 1483 1483 1482 1482 1481 1480 1479 1478 1478 1477 1476 1475 1474 1474 1473 1472 1472 1471 1471 1470 1470 1469 1469 1468 1467 1467 1466 1465 1465 1464 1463 1463 1462 1462 1462 1461 1461 1461 1461 1460
1512 1510 1509 1508 1507 1505 1504 1503 1502 1501 1500 1499 1497 1496 1495 1494 1493 1492 1492 1491 1490 1490 1489 1488 1487 1486 1485 1484 1483 1483 1482 1481 1480 1479 1478 1477 1477 1476 1475 1474 1473 1472 1472 1471 1471 1470 1470 1469 1469 1468 1468 1467 1467 1466 1465 1465 1464 1463 1463 1462 1462 1461 1461 1460 1460 1460 1459 1459 1459
1509 1508 1507 1506 1505 1503 1502 1501 1500 1499 1498 1497 1496 1495 1494 1493 1492 1492 1491 1490 1489 1489 1488 1487 1487 1485 1484 1483 1482 1482 1481 1480 1479 1478 1477 1476 1475 1474 1473 1472 1471 1471 1470 1469 1469 1468 1468 1467 1467 1467 1466 1466 1465 1464 1464 1463 1462 1462 1461 1461 1460 1460 1459 1458 1458 1458 1458 1457 1457
1507 1506 1505 1504 1503 1502 1501 1500 1499 1498 1497 1496 1495 1494 1493 1492 1491 1490 1489 1488 1488 1487 1487 1486 1485 1484 1483 1482 1481 1480 1479 1478 1477 1476 1475 1474 1473 1472 1471 1470 1469 1469 1468 1468 1467 1467 1466 1466 1465 1465 1464 1463 1463 1462 1462 1461 1461 1460 1459 1459 1458 1458 1457 1457 1457 1457 1456 1456 1456
1506 1504 1503 1502 1501 1500 1499 1498 1497 1496 1495 1495 1493 1492 1492 1491 1490 1489 1487 1487 1486 1486 1485 1484 1484 1482 1481 1480 1478 1477 1476 1475 1475 1474 1473 1472 1471 1469 1468 1468 1467 1467 1467 1466 1466 1465 1464 1464 1463 1462 1462 1461 1461 1461 1460 1459 1458 1458 1457 1457 1456 1456 1455 1455 1455 1455 1454 1454 1454
1504 1503 1502 1500 1499 1498 1497 1496 1495 1494 1493 1492 1492 1490 1489 1488 1488 1487 1485 1484 1484 1483 1482 1482 1481 1480 1478 1477 1476 1475 1475 1474 1473 1472 1471 1470 1468 1467 1466 1466 1465 1465 1464 1464 1463 1463 1462 1462 1461 1461 1460 1459 1459 1458 1457 1457 1456 1455 1455 1454 1454 1453 1453 1453 1453 1453 1452 1452 1452
1502 1501 1500 1498 1497 1496 1495 1494 1493 1492 1491 1490 1489 1488 1487 1486 1486 1484 1483 1482 1481 1481 1480 1479 1478 1477 1476 1475 1474 1473 1472 1472 1471 1470 1469 1468 1467 1466 1465 1464 1463 1463 1462 1461 1461 1461 1460 1460 1459 1459 1458 1457 1456 1456 1455 1454 1454 1453 1453 1452 1452 1452 1451 1451 1451 1451 1450 1450 1449
1501 1499 1498 1497 1496 1494 1493 1492 1492 1490 1489 1488 1487 1486 1485 1484 1483 1482 1481 1480 1479 1479 1478 1477 1476 1475 1474 1473 1472 1471 1470 1469 1468 1467 1467 1466 1465 1464 1463 1463 1462 1461 1461 1460 1459 1459 1458 1458 1457 1457 1456 1455 1454 1453 1453 1452 1452 1451 1451 1450 1450 1450 1449 1449 1448 1448 1448 1447 1447
1499 1498 1497 1495 1494 1493 1492 1491 1490 1489 1487 1487 1485 1484 1483 1483 1482 1481 1480 1479 1478 1477 1477 1476 1474 1473 1472 1471 1470 1469 1468 1467 1466 1465 1464 1464 1463 1463 1462 1462 1461 1460 1459 1459 1458 1457 1457 1456 1455 1455 1454 1453 1452 1452 1451 1450 1450 1449 1449 1448 1448 1447 1447 1447 1446 1446 1446 1445 1445
1498 1497 1495 1494 1493 1492 1491 1489 1488 1487 1486 1485 1484 1483 1482 1481 1480 1479 1478 1477 1477 1476 1475 1474 1473 1472 1470 1469 1468 1467 1467 1466 1465 1464 1463 1463 1462 1462 1461 1460 1459 1458 1458 1457 1456 1455 1454 1454 1453 1452 1452 1451 1450 1450 1449 1448 1447 1447 1447 1446 1446 1446 1445 1445 1444 1444 1443 1443 1442
1496 1495 1494 1493 1492 1490 1489 1488 1487 1486 1485 1484 1482 1482 1481 1480 1479 1478 1477 1476 1475 1474 1473 1472 1471 1470 1469 1468 1467 1467 1466 1465 1464 1463 1462 1462 1461 1460 1459 1458 1457 1457 1456 1455 1454 1453 1452 1452 1451 1450 1450 1449 1448 1447 1447 1446 1445 1445 1444 1444 1444 1444 1443 1443 1442 1442 1441 1441 1440
1494 1493 1492 1492 1490 1489 1488 1487 1486 1485 1483 1482 1482 1481 1480 1479 1478 1477 1476 1474 1473 1472 1472 1471 1470 1469 1468 1467 1467 1466 1464 1463 1462 1462 1461 1460 1459 1458 1457 1456 1455 1454 1453 1453 1452 1451 1451 1450 1449 1448 1447 1447 1446 1445 1445 1444 1444 1443 1443 1442 1442 1442 1441 1441 1440 1439 1439 1438 1437
1493 1492 1491 1490 1489 1488 1487 1486 1485 1484 1482 1482 1480 1479 1478 1477 1476 1475 1474 1473 1472 1471 1470 1469 1469 1468 1467 1466 1465 1464 1463 1462 1461 1460 1459 1458 1457 1456 1455 1454 1453 1452 1452 1451 1450 1449 1448 1448 1447 1446 1446 1445 1445 1444 1444 1443 1443 1442 1441 1441 1440 1439 1439 1438 1437 1437 1436 1436 1435
1491 1491 1490 1489 1488 1487 1486 1485 1484 1483 1482 1481 1479 1478 1477 1476 1475 1474 1472 1472 1471 1470 1469 1468 1467 1466 1465 1464 1463 1462 1461 1460 1459 1458 1457 1456 1455 1454 1453 1452 1452 1451 1450 1449 1448 1447 1447 1446 1445 1445 1444 1443 1443 1443 1442 1442 1441 1440 1439 1438 1438 1437 1436 1435 1435 1434 1433 1433 1432
1490 1489 1488 1487 1487 1486 1485 1483 1482 1482 1480 1479 1478 1477 1476 1475 1474 1473 1472 1471 1469 1468 1468 1467 1466 1465 1464 1463 1462 1461 1460 1459 1458 1457 1456 1455 1454 1453 1452 1452 1450 1449 1448 1448 1447 1446 1445 1445 1444 1443 1442 1442 1441 1441 1440 1440 1439 1438 1437 1437 1436 1435 1434 1433 1432 1432 1431 1431 1430
1489 1488 1487 1486 1486 1485 1483 1482 1481 1480 1479 1478 1477 1477 1475 1474 1473 1472 1471 1470 1468 1467 1467 1466 1465 1464 1463 1462 1461 1460 1459 1458 1457 1456 1455 1454 1453 1452 1451 1450 1449 1448 1447 1446 1446 1445 1444 1443 1442 1442 1441 1440 1440 1439 1438 1437 1437 1436 1435 1434 1433 1433 1432 1431 1430 1430 1429 1428 1427
1488 1487 1486 1485 1484 1483 1482 1481 1480 1479 1478 1477 1477 1476 1475 1473 1472 1471 1470 1469 1467 1467 1465 1464 1463 1462 1462 1461 1460 1459 1458 1457 1456 1455 1454 1453 1452 1451 1450 1450 1449 1448 1446 1445 1444 1443 1443 1442 1441 1440 1439 1439 1438 1437 1436 1436 1435 1434 1433 1433 1432 1431 1430 1429 1429 1428 1427 1426 1426
1486 1485 1484 1483 1482 1482 1481 1480 1479 1478 1477 1476 1476 1475 1473 1472 1472 1471 1470 1469 1468 1467 1465 1464 1462 1461 1461 1460 1459 1458 1457 1456 1455 1454 1453 1452 1451 1450 1449 1449 1448 1447 1445 1444 1443 1442 1441 1440 1439 1438 1438 1437 1436 1436 1435 1434 1433 1432 1432 1431 1430 1429 1428 1428 1427 1426 1425 1424 1423
1484 1484 1483 1482 1481 1480 1480 1479 1478 1477 1476 1475 1475 1474 1473 1472 1472 1471 1470 1469 1468 1467 1465 1464 1462 1461 1460 1459 1458 1457 1457 1456 1454 1453 1452 1451 1450 1449 1448 1448 1447 1446 1444 1442 1441 1441 1440 1439 1438 1437 1436 1435 1434 1433 1433 1432 1431 1431 1430 1429 1428 1427 1427 1426 1425 1424 1423 1422 1421
1483 1482 1482 1481 1480 1479 1478 1478 1477 1476 1475 1474 1474 1473 1472 1472 1472 1471 1470 1469 1467 1466 1464 1463 1462 1461 1460 1459 1458 1457 1456 1455 1454 1452 1451 1450 1449 1448 1447 1446 1446 1444 1442 1440 1440 1439 1438 1437 1436 1435 1434 1433 1432 1431 1431 1430 1429 1428 1427 1426 1426 1425 1424 1423 1422 1422 1421 1420 1419
1482 1481 1480 1480 1479 1478 1477 1477 1476 1475 1474 1473 1473 1472 1472 1471 1471 1470 1469 1467 1466 1465 1464 1462 1461 1460 1459 1458 1457 1456 1455 1453 1452 1451 1450 1449 1448 1447 1446 1445 1444 1443 1441 1439 1438 1437 1436 1435 1434 1433 1432 1431 1430 1429 1428 1427 1426 1425 1425 1424 1423 1422 1422 1421 1420 1419 1418 1418 1417
1480 1480 1479 1479 1478 1477 1477 1476 1475 1474 1473 1472 1472 1471 1471 1470 1470 1469 1467 1466 1465 1464 1462 1461 1460 1459 1458 1457 1456 1454 1453 1452 1451 1449 1448 1447 1446 1445 1444 1443 1442 1441 1439 1437 1436 1435 1434 1433 1432 1431 1430 1429 1428 1427 1426 1425 1424 1423 1422 1422 1421 1420 1420 1419 1418 1417 1416 1416 1415
1479 1478 1478 1477 1477 1476 1475 1474 1473 1473 1472 1471 1471 1470 1470 1469 1468 1467 1466 1465 1464 1462 1461 1460 1459 1458 1457 1456 1454 1453 1452 1450 1449 1448 1447 1446 1445 1444 1442 1442 1441 1439 1437 1435 1434 1433 1432 1431 1430 1429 1428 1427 1426 1425 1424 1422 1422 1421 1420 1420 1419 1418 1417 1417 1416 1415 1414 1412 1412
1477 1477 1477 1476 1476 1475 1474 1473 1472 1472 1471 1470 1470 1469 1469 1468 1467 1467 1465 1464 1462 1461 1460 1459 1458 1457 1456 1454 1453 1452 1450 1449 1447 1446 1445 1444 1443 1442 1441 1440 1439 1437 1435 1433 1432 1432 1431 1429 1428 1427 1426 1425 1423 1422 1421 1421 1420 1419 1418 1418 1417 1416 1415 1414 1413 1412 1411 1410 1409
1476 1476 1475 1475 1474 1474 1473 1472 1472 1471 1470 1469 1468 1468 1467 1467 1466 1465 1464 1462 1461 1460 1459 1458 1457 1456 1454 1453 1452 1450 1449 1447 1446 1445 1443 1442 1441 1440 1439 1438 1437 1436 1434 1432 1431 1430 1428 1427 1426 1425 1424 1422 1421 1420 1419 1419 1418 1417 1417 1416 1415 1414 1412 1411 1410 1409 1408 1407 1406
1475 1474 1474 1473 1473 1472 1472 1471 1470 1470 1469 1468 1467 1467 1466 1466 1465 1464 1462 1461 1460 1459 1457 1457 1455 1454 1453 1452 1450 1449 1447 1446 1445 1443 1442 1440 1439 1438 1437 1436 1435 1434 1432 1430 1429 1427 1427 1425 1424 1423 1422 1421 1419 1418 1417 1417 1416 1415 1414 1413 1412 1411 1409 1408 1407 1406 1405 1405 1404
1473 1473 1472 1472 1472 1472 1471 1470 1469 1468 1468 1467 1467 1466 1466 1465 1464 1462 1461 1460 1458 1457 1456 1455 1454 1453 1451 1450 1448 1447 1446 1444 1443 1441 1440 1438 1437 1436 1435 1434 1433 1432 1430 1429 1427 1426 1425 1423 1422 1421 1420 1418 1417 1417 1416 1415 1414 1412 1412 1410 1409 1408 1407 1406 1405 1404 1403 1402 1402
1472 1472 1472 1472 1471 1470 1470 1469 1468 1467 1467 1466 1466 1465 1464 1463 1462 1461 1460 1458 1457 1456 1455 1453 1452 1451 1450 1448 1447 1445 1444 1443 1441 1440 1438 1437 1436 1434 1433 1432 1431 1430 1428 1427 1425 1424 1422 1422 1420 1419 1418 1417 1415 1414 1413 1412 1411 1410 1409 1408 1407 1406 1405 1404 1403 1402 1401 1400 1399
1471 1471 1471 1471 1470 1469 1469 1468 1467 1467 1466 1465 1465 1464 1463 1462 1461 1459 1458 1457 1456 1454 1453 1452 1451 1449 1448 1447 1445 1444 1442 1441 1440 1438 1437 1435 1434 1432 1431 1430 1429 1428 1427 1425 1423 1422 1421 1420 1418 1417 1416 1414 1413 1412 1411 1410 1409 1408 1407 1407 1406 1404 1403 1402 1401 1400 1399 1398 1397
1470 1470 1470 1469 1469 1468 1467 1467 1466 1466 1465 1464 1463 1462 1461 1460 1459 1458 1457 1455 1454 1453 1452 1451 1449 1448 1447 1445 1444 1442 1441 1439 1438 1437 1435 1434 1432 1431 1429 1428 1427 1426 1425 1424 1422 1421 1419 1418 1417 1415 1414 1412 1412 1410 1409 1408 1408 1407 1406 1405 1404 1402 1401 1400 1399 1398 1397 1396 1396